Time,TemperatureF,DewpointF,PressureIn,WindDirection,WindDirectionDegrees,WindSpeedMPH,WindSpeedGustMPH,Humidity,HourlyPrecipIn,Conditions,Clouds,dailyrainin,SoftwareType,DateUTC
2013-09-25 00:00:00,58.8,52.7,29.91,NE,48,0.0,0.0,80,0.00,,CLR,0.00,VWS V14.01,2013-09-25 05:00:00,
2013-09-25 00:01:00,58.5,52.4,29.91,NE,48,0.0,0.0,80,0.00,,BKN250,0.00,VWS V14.01,2013-09-25 05:01:00,
2013-09-25 00:05:00,57.6,51.8,29.91,NNW,330,0.0,0.0,81,0.00,,CLR,0.00,VWS V14.01,2013-09-25 05:05:00,
2013-09-25 00:06:00,57.2,51.4,29.91,NNW,330,0.0,0.0,81,0.00,,BKN250,0.00,VWS V14.01,2013-09-25 05:06:00,
2013-09-25 00:10:00,56.5,51.4,29.91,NW,312,0.0,0.0,83,0.00,,CLR,0.00,VWS V14.01,2013-09-25 05:10:00,
2013-09-25 00:11:00,56.2,51.1,29.91,NW,312,0.0,0.0,83,0.00,,BKN250,0.00,VWS V14.01,2013-09-25 05:11:00,
2013-09-25 00:15:00,55.8,51.4,29.91,NW,309,0.0,0.0,85,0.00,,OVC016,0.00,VWS V14.01,2013-09-25 05:15:00,
2013-09-25 00:16:00,55.7,51.3,29.91,NW,309,0.0,0.0,85,0.00,,BKN250,0.00,VWS V14.01,2013-09-25 05:16:00,
2013-09-25 00:20:00,55.3,51.2,29.91,NW,321,0.0,0.0,86,0.00,,OVC016,0.00,VWS V14.01,2013-09-25 05:20:00,
2013-09-25 00:21:00,55.4,51.6,29.91,North,355,0.0,0.0,87,0.00,,BKN250,0.00,VWS V14.01,2013-09-25 05:21:00,
2013-09-25 00:25:00,55.6,52.4,29.91,North,355,0.0,0.0,89,0.00,,CLR,0.00,VWS V14.01,2013-09-25 05:25:00,
2013-09-25 00:26:00,55.8,52.6,29.91,NE,38,0.0,1.0,89,0.00,,BKN250,0.00,VWS V14.01,2013-09-25 05:26:00,
2013-09-25 00:30:00,56.3,53.4,29.91,North,355,0.0,0.0,90,0.00,,CLR,0.00,VWS V14.01,2013-09-25 05:30:00,
2013-09-25 00:31:00,56.6,53.4,29.91,NE,35,1.0,2.0,89,0.00,,BKN250,0.00,VWS V14.01,2013-09-25 05:31:00,
2013-09-25 00:35:00,56.9,53.7,29.91,NE,35,0.0,2.0,89,0.00,,CLR,0.00,VWS V14.01,2013-09-25 05:35:00,
2013-09-25 00:36:00,57.1,53.9,29.90,East,86,3.0,3.0,89,0.00,,BKN250,0.00,VWS V14.01,2013-09-25 05:36:00,
2013-09-25 00:40:00,57.7,55.4,29.90,ENE,77,0.0,5.0,92,0.00,,CLR,0.00,VWS V14.01,2013-09-25 05:40:00,
2013-09-25 00:42:00,58.0,54.8,29.90,NE,49,1.0,5.0,89,0.00,,BKN250,0.00,VWS V14.01,2013-09-25 05:42:00,
2013-09-25 00:45:00,58.6,55.4,29.90,NE,38,2.0,6.0,89,0.00,,CLR,0.00,VWS V14.01,2013-09-25 05:45:00,
2013-09-25 00:48:00,59.0,55.5,29.90,NE,45,0.0,4.0,88,0.00,,BKN250,0.00,VWS V14.01,2013-09-25 05:48:00,
2013-09-25 00:50:00,59.3,55.8,29.91,ENE,61,3.0,7.0,88,0.00,,CLR,0.00,VWS V14.01,2013-09-25 05:50:00,
2013-09-25 00:53:00,59.7,55.8,29.91,NE,47,0.0,9.0,87,0.00,,BKN250,0.00,VWS V14.01,2013-09-25 05:53:00,
2013-09-25 00:55:00,60.0,55.8,29.91,ENE,72,7.0,9.0,86,0.00,,CLR,0.00,VWS V14.01,2013-09-25 05:55:00,
2013-09-25 00:58:00,60.4,55.9,29.90,ENE,74,5.0,9.0,85,0.00,,BKN250,0.00,VWS V14.01,2013-09-25 05:58:00,
2013-09-25 01:00:00,60.5,56.0,29.91,NE,52,3.0,8.0,85,0.00,,CLR,0.00,VWS V14.01,2013-09-25 06:00:00,
2013-09-25 01:03:00,60.7,55.8,29.91,NNE,27,0.0,9.0,84,0.00,,BKN230,0.00,VWS V14.01,2013-09-25 06:03:00,
2013-09-25 01:05:00,60.7,55.8,29.91,East,81,3.0,9.0,84,0.00,,CLR,0.00,VWS V14.01,2013-09-25 06:05:00,
2013-09-25 01:08:00,60.7,55.5,29.90,NE,42,0.0,5.0,83,0.00,,BKN230,0.00,VWS V14.01,2013-09-25 06:08:00,
2013-09-25 01:10:00,60.6,55.4,29.90,East,91,3.0,6.0,83,0.00,,CLR,0.00,VWS V14.01,2013-09-25 06:10:00,
2013-09-25 01:13:00,60.6,55.4,29.90,ENE,75,0.0,6.0,83,0.00,,BKN230,0.00,VWS V14.01,2013-09-25 06:13:00,
2013-09-25 01:15:00,60.6,55.4,29.90,NE,45,0.0,6.0,83,0.00,,CLR,0.00,VWS V14.01,2013-09-25 06:15:00,
2013-09-25 01:18:00,60.5,55.0,29.90,East,88,6.0,6.0,82,0.00,,BKN230,0.00,VWS V14.01,2013-09-25 06:18:00,
2013-09-25 01:20:00,60.4,54.9,29.90,ENE,65,4.0,9.0,82,0.00,,CLR,0.00,VWS V14.01,2013-09-25 06:20:00,
2013-09-25 01:23:00,60.6,55.8,29.90,ENE,78,9.0,9.0,84,0.00,,BKN230,0.00,VWS V14.01,2013-09-25 06:23:00,
2013-09-25 01:25:00,60.7,55.8,29.90,NE,53,0.0,9.0,84,0.00,,CLR,0.00,VWS V14.01,2013-09-25 06:25:00,
2013-09-25 01:28:00,60.9,56.0,29.90,NE,51,4.0,9.0,84,0.00,,BKN230,0.00,VWS V14.01,2013-09-25 06:28:00,
2013-09-25 01:30:00,60.9,56.0,29.90,ENE,67,4.0,9.0,84,0.00,,CLR,0.00,VWS V14.01,2013-09-25 06:30:00,
2013-09-25 01:33:00,61.0,55.8,29.90,NNE,20,2.0,8.0,83,0.00,,BKN230,0.00,VWS V14.01,2013-09-25 06:33:00,
2013-09-25 01:35:00,61.0,56.1,29.90,NE,53,5.0,9.0,84,0.00,,CLR,0.00,VWS V14.01,2013-09-25 06:35:00,
2013-09-25 01:38:00,61.1,55.9,29.90,East,96,0.0,10.0,83,0.00,,BKN230,0.00,VWS V14.01,2013-09-25 06:38:00,
2013-09-25 01:40:00,61.1,56.2,29.90,East,82,3.0,10.0,84,0.00,,CLR,0.00,VWS V14.01,2013-09-25 06:40:00,
2013-09-25 01:43:00,61.1,56.2,29.90,East,82,0.0,10.0,84,0.00,,BKN230,0.00,VWS V14.01,2013-09-25 06:43:00,
2013-09-25 01:45:00,61.1,56.2,29.90,ENE,67,8.0,10.0,84,0.00,,CLR,0.00,VWS V14.01,2013-09-25 06:45:00,
2013-09-25 01:48:00,61.2,56.3,29.90,NE,53,4.0,10.0,84,0.00,,BKN230,0.00,VWS V14.01,2013-09-25 06:48:00,
2013-09-25 01:50:00,61.2,56.0,29.90,ENE,69,2.0,10.0,83,0.00,,CLR,0.00,VWS V14.01,2013-09-25 06:50:00,
2013-09-25 01:53:00,61.2,56.0,29.90,NE,51,0.0,7.0,83,0.00,,BKN230,0.00,VWS V14.01,2013-09-25 06:53:00,
2013-09-25 01:55:00,61.3,56.1,29.90,East,88,6.0,8.0,83,0.00,,CLR,0.00,VWS V14.01,2013-09-25 06:55:00,
2013-09-25 01:58:00,61.2,56.3,29.90,NE,48,0.0,8.0,84,0.00,,BKN230,0.00,VWS V14.01,2013-09-25 06:58:00,
2013-09-25 02:00:00,61.2,56.0,29.90,NE,47,0.0,6.0,83,0.00,,CLR,0.00,VWS V14.01,2013-09-25 07:00:00,
2013-09-25 02:04:00,61.2,56.0,29.91,ESE,113,0.0,7.0,83,0.00,,FEW240,0.00,VWS V14.01,2013-09-25 07:04:00,
2013-09-25 02:05:00,61.0,55.1,29.91,SE,142,0.0,7.0,81,0.00,,CLR,0.00,VWS V14.01,2013-09-25 07:05:00,
2013-09-25 02:09:00,59.5,51.9,29.91,South,175,0.0,5.0,76,0.00,,FEW240,0.00,VWS V14.01,2013-09-25 07:09:00,
2013-09-25 02:10:00,59.0,51.8,29.91,South,174,0.0,0.0,77,0.00,,CLR,0.00,VWS V14.01,2013-09-25 07:10:00,
2013-09-25 02:14:00,57.2,51.1,29.91,SSW,196,0.0,0.0,80,0.00,,FEW240,0.00,VWS V14.01,2013-09-25 07:14:00,
2013-09-25 02:15:00,56.9,51.1,29.91,SSW,196,0.0,0.0,81,0.00,,CLR,0.00,VWS V14.01,2013-09-25 07:15:00,
2013-09-25 02:19:00,55.7,51.0,29.91,WSW,247,0.0,0.0,84,0.00,,FEW240,0.00,VWS V14.01,2013-09-25 07:19:00,
2013-09-25 02:20:00,55.6,51.2,29.91,WSW,247,0.0,0.0,85,0.00,,CLR,0.00,VWS V14.01,2013-09-25 07:20:00,
2013-09-25 02:24:00,54.8,50.7,29.91,WSW,247,0.0,0.0,86,0.00,,FEW240,0.00,VWS V14.01,2013-09-25 07:24:00,
2013-09-25 02:25:00,54.7,50.6,29.91,WSW,247,0.0,0.0,86,0.00,,CLR,0.00,VWS V14.01,2013-09-25 07:25:00,
2013-09-25 02:29:00,53.9,49.8,29.91,WSW,255,0.0,1.0,86,0.00,,FEW240,0.00,VWS V14.01,2013-09-25 07:29:00,
2013-09-25 02:30:00,53.8,50.0,29.91,West,276,0.0,1.0,87,0.00,,CLR,0.00,VWS V14.01,2013-09-25 07:30:00,
2013-09-25 02:34:00,53.2,49.7,29.91,West,276,0.0,0.0,88,0.00,,FEW240,0.00,VWS V14.01,2013-09-25 07:34:00,
2013-09-25 02:35:00,53.2,49.7,29.91,West,276,0.0,0.0,88,0.00,,CLR,0.00,VWS V14.01,2013-09-25 07:35:00,
2013-09-25 02:39:00,52.9,50.0,29.90,West,276,0.0,0.0,90,0.00,,FEW240,0.00,VWS V14.01,2013-09-25 07:39:00,
2013-09-25 02:40:00,52.8,50.0,29.90,West,276,0.0,0.0,90,0.00,,CLR,0.00,VWS V14.01,2013-09-25 07:40:00,
2013-09-25 02:44:00,52.9,50.3,29.90,West,276,0.0,0.0,91,0.00,,FEW240,0.00,VWS V14.01,2013-09-25 07:44:00,
2013-09-25 02:45:00,52.9,50.3,29.90,NW,306,1.0,1.0,91,0.00,,CLR,0.00,VWS V14.01,2013-09-25 07:45:00,
2013-09-25 02:49:00,53.6,51.3,29.90,NW,311,0.0,0.0,92,0.00,,FEW240,0.00,VWS V14.01,2013-09-25 07:49:00,
2013-09-25 02:50:00,53.7,51.4,29.90,NW,311,0.0,0.0,92,0.00,,CLR,0.00,VWS V14.01,2013-09-25 07:50:00,
2013-09-25 02:54:00,53.8,51.2,29.90,NW,311,0.0,0.0,91,0.00,,FEW240,0.00,VWS V14.01,2013-09-25 07:54:00,
2013-09-25 02:55:00,53.8,51.2,29.90,NW,311,0.0,0.0,91,0.00,,CLR,0.00,VWS V14.01,2013-09-25 07:55:00,
2013-09-25 02:59:00,53.9,51.3,29.90,NW,311,0.0,0.0,91,0.00,,FEW240,0.00,VWS V14.01,2013-09-25 07:59:00,
2013-09-25 03:00:00,53.9,51.3,29.90,NW,311,0.0,0.0,91,0.00,,CLR,0.00,VWS V14.01,2013-09-25 08:00:00,
2013-09-25 03:04:00,54.8,52.8,29.90,NNE,19,0.0,5.0,93,0.00,,FEW022,0.00,VWS V14.01,2013-09-25 08:04:00,
2013-09-25 03:05:00,54.9,52.9,29.90,NNE,19,0.0,5.0,93,0.00,,CLR,0.00,VWS V14.01,2013-09-25 08:05:00,
2013-09-25 03:09:00,56.2,54.5,29.90,ENE,61,2.0,8.0,94,0.00,,FEW022,0.00,VWS V14.01,2013-09-25 08:09:00,
2013-09-25 03:10:00,56.3,54.6,29.90,ENE,69,2.0,8.0,94,0.00,,CLR,0.00,VWS V14.01,2013-09-25 08:10:00,
2013-09-25 03:14:00,58.0,56.0,29.90,ENE,74,8.0,9.0,93,0.00,,FEW022,0.00,VWS V14.01,2013-09-25 08:14:00,
2013-09-25 03:15:00,58.0,56.0,29.90,East,83,8.0,9.0,93,0.00,,CLR,0.00,VWS V14.01,2013-09-25 08:15:00,
2013-09-25 03:19:00,59.3,56.4,29.90,ENE,75,7.0,10.0,90,0.00,,FEW022,0.00,VWS V14.01,2013-09-25 08:19:00,
2013-09-25 03:20:00,59.4,56.5,29.90,East,89,5.0,10.0,90,0.00,,CLR,0.00,VWS V14.01,2013-09-25 08:20:00,
2013-09-25 03:24:00,60.0,56.4,29.90,ENE,59,3.0,9.0,88,0.00,,FEW022,0.00,VWS V14.01,2013-09-25 08:24:00,
2013-09-25 03:25:00,60.0,56.4,29.90,ENE,63,7.0,9.0,88,0.00,,CLR,0.00,VWS V14.01,2013-09-25 08:25:00,
2013-09-25 03:29:00,60.3,56.4,29.90,NE,55,0.0,8.0,87,0.00,,FEW022,0.00,VWS V14.01,2013-09-25 08:29:00,
2013-09-25 03:30:00,60.3,56.4,29.90,NE,56,0.0,8.0,87,0.00,,CLR,0.00,VWS V14.01,2013-09-25 08:30:00,
2013-09-25 03:34:00,60.5,56.6,29.90,ENE,74,0.0,6.0,87,0.00,,FEW022,0.00,VWS V14.01,2013-09-25 08:34:00,
2013-09-25 03:35:00,60.5,56.6,29.90,ENE,74,0.0,6.0,87,0.00,,CLR,0.00,VWS V14.01,2013-09-25 08:35:00,
2013-09-25 03:39:00,60.5,56.3,29.90,ENE,67,4.0,9.0,86,0.00,,FEW022,0.00,VWS V14.01,2013-09-25 08:39:00,
2013-09-25 03:40:00,60.5,56.3,29.90,ENE,68,3.0,9.0,86,0.00,,CLR,0.00,VWS V14.01,2013-09-25 08:40:00,
2013-09-25 03:44:00,60.6,56.4,29.90,East,80,0.0,7.0,86,0.00,,FEW022,0.00,VWS V14.01,2013-09-25 08:44:00,
2013-09-25 03:45:00,60.6,56.4,29.90,East,80,0.0,7.0,86,0.00,,CLR,0.00,VWS V14.01,2013-09-25 08:45:00,
2013-09-25 03:49:00,60.7,56.5,29.90,East,92,0.0,3.0,86,0.00,,FEW022,0.00,VWS V14.01,2013-09-25 08:49:00,
2013-09-25 03:50:00,60.7,56.5,29.90,East,92,0.0,3.0,86,0.00,,CLR,0.00,VWS V14.01,2013-09-25 08:50:00,
2013-09-25 03:54:00,60.7,56.2,29.90,ENE,68,0.0,6.0,85,0.00,,FEW022,0.00,VWS V14.01,2013-09-25 08:54:00,
2013-09-25 03:55:00,60.7,56.2,29.90,ENE,68,0.0,6.0,85,0.00,,CLR,0.00,VWS V14.01,2013-09-25 08:55:00,
2013-09-25 03:59:00,60.7,56.5,29.90,East,86,0.0,6.0,86,0.00,,FEW022,0.00,VWS V14.01,2013-09-25 08:59:00,
2013-09-25 04:00:00,60.7,56.5,29.90,East,86,0.0,6.0,86,0.00,,CLR,0.00,VWS V14.01,2013-09-25 09:00:00,
2013-09-25 04:04:00,60.7,56.5,29.90,East,100,0.0,0.0,86,0.00,,FEW025,0.00,VWS V14.01,2013-09-25 09:04:00,
2013-09-25 04:05:00,60.7,56.5,29.90,East,100,0.0,0.0,86,0.00,,CLR,0.00,VWS V14.01,2013-09-25 09:05:00,
2013-09-25 04:09:00,60.6,56.1,29.90,East,94,0.0,0.0,85,0.00,,FEW025,0.00,VWS V14.01,2013-09-25 09:09:00,
2013-09-25 04:10:00,60.6,56.1,29.90,East,94,0.0,0.0,85,0.00,,CLR,0.00,VWS V14.01,2013-09-25 09:10:00,
2013-09-25 04:14:00,59.7,53.9,29.90,East,94,0.0,0.0,81,0.00,,FEW025,0.00,VWS V14.01,2013-09-25 09:14:00,
2013-09-25 04:15:00,59.7,53.9,29.90,East,94,0.0,0.0,81,0.00,,CLR,0.00,VWS V14.01,2013-09-25 09:15:00,
2013-09-25 04:19:00,57.9,52.5,29.90,SSE,168,0.0,0.0,82,0.00,,FEW025,0.00,VWS V14.01,2013-09-25 09:19:00,
2013-09-25 04:20:00,57.9,52.5,29.90,SSE,168,0.0,0.0,82,0.00,,CLR,0.00,VWS V14.01,2013-09-25 09:20:00,
2013-09-25 04:24:00,55.9,50.8,29.90,SSW,192,0.0,0.0,83,0.00,,FEW025,0.00,VWS V14.01,2013-09-25 09:24:00,
2013-09-25 04:25:00,55.9,50.8,29.90,SSW,192,0.0,0.0,83,0.00,,CLR,0.00,VWS V14.01,2013-09-25 09:25:00,
2013-09-25 04:29:00,54.5,50.1,29.90,WSW,237,0.0,0.0,85,0.00,,FEW025,0.00,VWS V14.01,2013-09-25 09:29:00,
2013-09-25 04:30:00,54.5,50.1,29.90,WSW,237,0.0,0.0,85,0.00,,CLR,0.00,VWS V14.01,2013-09-25 09:30:00,
2013-09-25 04:34:00,53.4,49.6,29.90,WSW,237,0.0,0.0,87,0.00,,FEW025,0.00,VWS V14.01,2013-09-25 09:34:00,
2013-09-25 04:35:00,53.4,49.6,29.90,WSW,237,0.0,0.0,87,0.00,,CLR,0.00,VWS V14.01,2013-09-25 09:35:00,
2013-09-25 04:39:00,52.6,49.2,29.90,WSW,237,0.0,0.0,88,0.00,,FEW025,0.00,VWS V14.01,2013-09-25 09:39:00,
2013-09-25 04:40:00,52.6,49.2,29.90,WSW,237,0.0,0.0,88,0.00,,CLR,0.00,VWS V14.01,2013-09-25 09:40:00,
2013-09-25 04:44:00,52.1,49.3,29.91,WSW,243,0.0,0.0,90,0.00,,FEW025,0.00,VWS V14.01,2013-09-25 09:44:00,
2013-09-25 04:45:00,52.1,49.3,29.91,WSW,243,0.0,0.0,90,0.00,,CLR,0.00,VWS V14.01,2013-09-25 09:45:00,
2013-09-25 04:49:00,51.8,49.3,29.91,WSW,243,0.0,0.0,91,0.00,,FEW025,0.00,VWS V14.01,2013-09-25 09:49:00,
2013-09-25 04:50:00,51.8,49.3,29.91,WSW,243,0.0,0.0,91,0.00,,CLR,0.00,VWS V14.01,2013-09-25 09:50:00,
2013-09-25 04:54:00,51.4,48.9,29.91,WSW,243,0.0,0.0,91,0.00,,FEW025,0.00,VWS V14.01,2013-09-25 09:54:00,
2013-09-25 04:55:00,51.4,48.9,29.91,WSW,243,0.0,0.0,91,0.00,,CLR,0.00,VWS V14.01,2013-09-25 09:55:00,
2013-09-25 05:00:00,51.2,48.7,29.91,WSW,244,0.0,0.0,91,0.00,,FEW025,0.00,VWS V14.01,2013-09-25 10:00:00,
2013-09-25 05:05:00,50.9,48.7,29.91,West,273,0.0,0.0,92,0.00,,CLR,0.00,VWS V14.01,2013-09-25 10:05:00,
2013-09-25 05:10:00,50.7,48.5,29.91,West,273,0.0,0.0,92,0.00,,CLR,0.00,VWS V14.01,2013-09-25 10:10:00,
2013-09-25 05:11:00,50.7,48.5,29.91,West,273,0.0,0.0,92,0.00,,CLR,0.00,VWS V14.01,2013-09-25 10:11:00,
2013-09-25 05:15:00,50.7,48.8,29.91,NW,323,0.0,1.0,93,0.00,,CLR,0.00,VWS V14.01,2013-09-25 10:15:00,
2013-09-25 05:16:00,50.6,48.7,29.91,NW,324,0.0,0.0,93,0.00,,CLR,0.00,VWS V14.01,2013-09-25 10:16:00,
2013-09-25 05:20:00,50.6,48.7,29.91,NW,323,0.0,4.0,93,0.00,,CLR,0.00,VWS V14.01,2013-09-25 10:20:00,
2013-09-25 05:21:00,50.5,48.6,29.91,NW,323,0.0,4.0,93,0.00,,CLR,0.00,VWS V14.01,2013-09-25 10:21:00,
2013-09-25 05:25:00,50.5,48.6,29.91,NW,319,3.0,3.0,93,0.00,,CLR,0.00,VWS V14.01,2013-09-25 10:25:00,
2013-09-25 05:26:00,50.4,48.5,29.91,North,360,3.0,4.0,93,0.00,,CLR,0.00,VWS V14.01,2013-09-25 10:26:00,
2013-09-25 05:30:00,50.4,48.7,29.91,NNW,332,0.0,4.0,94,0.00,,CLR,0.00,VWS V14.01,2013-09-25 10:30:00,
2013-09-25 05:31:00,50.4,48.7,29.91,NNW,328,0.0,4.0,94,0.00,,CLR,0.00,VWS V14.01,2013-09-25 10:31:00,
2013-09-25 05:35:00,50.5,48.8,29.92,NNW,331,0.0,2.0,94,0.00,,CLR,0.00,VWS V14.01,2013-09-25 10:35:00,
2013-09-25 05:36:00,50.5,48.8,29.92,NNW,348,0.0,2.0,94,0.00,,CLR,0.00,VWS V14.01,2013-09-25 10:36:00,
2013-09-25 05:40:00,50.7,49.0,29.92,NW,321,0.0,4.0,94,0.00,,CLR,0.00,VWS V14.01,2013-09-25 10:40:00,
2013-09-25 05:41:00,50.7,49.0,29.92,NNW,327,0.0,3.0,94,0.00,,CLR,0.00,VWS V14.01,2013-09-25 10:41:00,
2013-09-25 05:45:00,50.8,49.1,29.92,NNW,329,0.0,4.0,94,0.00,,CLR,0.00,VWS V14.01,2013-09-25 10:45:00,
2013-09-25 05:46:00,50.9,49.2,29.92,North,355,3.0,5.0,94,0.00,,CLR,0.00,VWS V14.01,2013-09-25 10:46:00,
2013-09-25 05:50:00,51.0,49.3,29.92,North,360,5.0,5.0,94,0.00,,CLR,0.00,VWS V14.01,2013-09-25 10:50:00,
2013-09-25 05:51:00,51.0,49.3,29.92,North,350,2.0,5.0,94,0.00,,CLR,0.00,VWS V14.01,2013-09-25 10:51:00,
2013-09-25 05:55:00,51.1,49.4,29.92,NNW,335,4.0,5.0,94,0.00,,CLR,0.00,VWS V14.01,2013-09-25 10:55:00,
2013-09-25 05:56:00,51.1,49.4,29.92,NNW,330,4.0,5.0,94,0.00,,CLR,0.00,VWS V14.01,2013-09-25 10:56:00,
2013-09-25 06:00:00,51.2,49.5,29.92,North,355,0.0,4.0,94,0.00,,CLR,0.00,VWS V14.01,2013-09-25 11:00:00,
2013-09-25 06:01:00,51.2,49.5,29.92,NNW,344,0.0,3.0,94,0.00,,FEW025,0.00,VWS V14.01,2013-09-25 11:01:00,
2013-09-25 06:05:00,51.2,49.5,29.92,NNW,335,0.0,0.0,94,0.00,,CLR,0.00,VWS V14.01,2013-09-25 11:05:00,
2013-09-25 06:06:00,51.2,49.5,29.92,NNW,348,0.0,0.0,94,0.00,,FEW025,0.00,VWS V14.01,2013-09-25 11:06:00,
2013-09-25 06:10:00,51.4,50.0,29.92,NNW,343,1.0,4.0,95,0.00,,CLR,0.00,VWS V14.01,2013-09-25 11:10:00,
2013-09-25 06:11:00,51.4,50.0,29.92,NNW,342,0.0,5.0,95,0.00,,FEW025,0.00,VWS V14.01,2013-09-25 11:11:00,
2013-09-25 06:15:00,51.5,50.1,29.92,NNW,340,2.0,5.0,95,0.00,,CLR,0.00,VWS V14.01,2013-09-25 11:15:00,
2013-09-25 06:16:00,51.6,50.2,29.92,NNW,339,3.0,5.0,95,0.00,,FEW025,0.00,VWS V14.01,2013-09-25 11:16:00,
2013-09-25 06:20:00,51.7,50.3,29.92,NNW,337,0.0,5.0,95,0.00,,CLR,0.00,VWS V14.01,2013-09-25 11:20:00,
2013-09-25 06:21:00,51.7,50.0,29.92,North,351,0.0,0.0,94,0.00,,FEW025,0.00,VWS V14.01,2013-09-25 11:21:00,
2013-09-25 06:25:00,51.8,50.1,29.92,NNW,344,0.0,0.0,94,0.00,,CLR,0.00,VWS V14.01,2013-09-25 11:25:00,
2013-09-25 06:26:00,51.8,50.4,29.92,NNW,346,0.0,0.0,95,0.00,,FEW025,0.00,VWS V14.01,2013-09-25 11:26:00,
2013-09-25 06:30:00,51.9,50.5,29.92,NNW,336,3.0,4.0,95,0.00,,CLR,0.00,VWS V14.01,2013-09-25 11:30:00,
2013-09-25 06:31:00,51.9,50.5,29.92,NNW,342,0.0,4.0,95,0.00,,FEW025,0.00,VWS V14.01,2013-09-25 11:31:00,
2013-09-25 06:35:00,51.9,50.5,29.92,NNW,348,0.0,3.0,95,0.00,,CLR,0.00,VWS V14.01,2013-09-25 11:35:00,
2013-09-25 06:36:00,52.0,50.6,29.92,NNW,342,2.0,6.0,95,0.00,,FEW025,0.00,VWS V14.01,2013-09-25 11:36:00,
2013-09-25 06:40:00,52.0,50.6,29.92,North,351,2.0,6.0,95,0.00,,CLR,0.00,VWS V14.01,2013-09-25 11:40:00,
2013-09-25 06:41:00,52.0,50.6,29.92,NNW,338,0.0,4.0,95,0.00,,FEW025,0.00,VWS V14.01,2013-09-25 11:41:00,
2013-09-25 06:45:00,51.9,50.5,29.92,NNW,341,0.0,0.0,95,0.00,,CLR,0.00,VWS V14.01,2013-09-25 11:45:00,
2013-09-25 06:47:00,51.9,50.5,29.93,NNE,21,2.0,5.0,95,0.00,,FEW025,0.00,VWS V14.01,2013-09-25 11:47:00,
2013-09-25 06:50:00,52.0,50.6,29.93,NW,325,4.0,5.0,95,0.00,,CLR,0.00,VWS V14.01,2013-09-25 11:50:00,
2013-09-25 06:52:00,52.1,50.7,29.93,NNW,336,3.0,5.0,95,0.00,,FEW025,0.00,VWS V14.01,2013-09-25 11:52:00,
2013-09-25 06:55:00,52.2,50.8,29.93,NNW,339,0.0,5.0,95,0.00,,CLR,0.00,VWS V14.01,2013-09-25 11:55:00,
2013-09-25 06:57:00,52.1,50.7,29.93,NNW,338,0.0,0.0,95,0.00,,FEW025,0.00,VWS V14.01,2013-09-25 11:57:00,
2013-09-25 07:00:00,52.1,50.7,29.93,NNW,339,0.0,0.0,95,0.00,,CLR,0.00,VWS V14.01,2013-09-25 12:00:00,
2013-09-25 07:02:00,52.1,50.7,29.93,North,355,0.0,0.0,95,0.00,,SCT250,0.00,VWS V14.01,2013-09-25 12:02:00,
2013-09-25 07:05:00,52.0,50.6,29.93,NNW,344,0.0,0.0,95,0.00,,CLR,0.00,VWS V14.01,2013-09-25 12:05:00,
2013-09-25 07:07:00,52.0,50.6,29.93,NNW,339,0.0,0.0,95,0.00,,SCT250,0.00,VWS V14.01,2013-09-25 12:07:00,
2013-09-25 07:10:00,52.0,50.6,29.93,North,355,0.0,2.0,95,0.00,,CLR,0.00,VWS V14.01,2013-09-25 12:10:00,
2013-09-25 07:12:00,52.0,50.6,29.93,NNW,347,0.0,2.0,95,0.00,,SCT250,0.00,VWS V14.01,2013-09-25 12:12:00,
2013-09-25 07:15:00,52.1,50.7,29.93,North,11,0.0,3.0,95,0.00,,CLR,0.00,VWS V14.01,2013-09-25 12:15:00,
2013-09-25 07:17:00,52.1,50.7,29.93,NNW,342,0.0,3.0,95,0.00,,SCT250,0.00,VWS V14.01,2013-09-25 12:17:00,
2013-09-25 07:20:00,52.1,50.4,29.93,NNW,329,0.0,0.0,94,0.00,,CLR,0.00,VWS V14.01,2013-09-25 12:20:00,
2013-09-25 07:22:00,52.1,50.4,29.93,NNW,330,0.0,0.0,94,0.00,,SCT250,0.00,VWS V14.01,2013-09-25 12:22:00,
2013-09-25 07:25:00,52.2,50.5,29.93,NNW,346,0.0,0.0,94,0.00,,CLR,0.00,VWS V14.01,2013-09-25 12:25:00,
2013-09-25 07:27:00,52.3,50.9,29.93,NNW,334,0.0,0.0,95,0.00,,SCT250,0.00,VWS V14.01,2013-09-25 12:27:00,
2013-09-25 07:30:00,52.4,50.7,29.93,North,11,0.0,0.0,94,0.00,,CLR,0.00,VWS V14.01,2013-09-25 12:30:00,
2013-09-25 07:32:00,52.5,51.1,29.93,NNW,336,0.0,1.0,95,0.00,,SCT250,0.00,VWS V14.01,2013-09-25 12:32:00,
2013-09-25 07:33:00,52.6,51.2,29.93,NNW,338,0.0,1.0,95,0.00,,SCT250,0.00,VWS V14.01,2013-09-25 12:33:00,
2013-09-25 07:35:00,52.7,51.3,29.93,NNW,343,0.0,1.0,95,0.00,,CLR,0.00,VWS V14.01,2013-09-25 12:35:00,
2013-09-25 07:38:00,53.0,51.6,29.93,NNW,340,0.0,0.0,95,0.00,,SCT250,0.00,VWS V14.01,2013-09-25 12:38:00,
2013-09-25 07:40:00,53.0,51.6,29.93,NNW,344,0.0,0.0,95,0.00,,CLR,0.00,VWS V14.01,2013-09-25 12:40:00,
2013-09-25 07:43:00,53.2,51.8,29.93,NNW,338,0.0,0.0,95,0.00,,SCT250,0.00,VWS V14.01,2013-09-25 12:43:00,
2013-09-25 07:45:00,53.2,51.8,29.93,NNW,339,0.0,0.0,95,0.00,,CLR,0.00,VWS V14.01,2013-09-25 12:45:00,
2013-09-25 07:48:00,53.4,51.7,29.93,NNW,339,0.0,0.0,94,0.00,,SCT250,0.00,VWS V14.01,2013-09-25 12:48:00,
2013-09-25 07:50:00,53.4,52.0,29.93,NNW,339,0.0,0.0,95,0.00,,CLR,0.00,VWS V14.01,2013-09-25 12:50:00,
2013-09-25 07:53:00,53.6,51.9,29.93,NNW,332,0.0,0.0,94,0.00,,SCT250,0.00,VWS V14.01,2013-09-25 12:53:00,
2013-09-25 07:55:00,53.7,52.3,29.93,NNW,334,0.0,0.0,95,0.00,,CLR,0.00,VWS V14.01,2013-09-25 12:55:00,
2013-09-25 07:58:00,53.8,52.1,29.93,NW,325,0.0,0.0,94,0.00,,SCT250,0.00,VWS V14.01,2013-09-25 12:58:00,
2013-09-25 08:00:00,53.8,52.1,29.93,NW,325,0.0,0.0,94,0.00,,CLR,0.00,VWS V14.01,2013-09-25 13:00:00,
2013-09-25 08:03:00,53.9,52.2,29.93,NW,325,0.0,0.0,94,0.00,,SCT250,0.00,VWS V14.01,2013-09-25 13:03:00,
2013-09-25 08:05:00,53.9,52.2,29.93,NW,325,0.0,0.0,94,0.00,,CLR,0.00,VWS V14.01,2013-09-25 13:05:00,
2013-09-25 08:08:00,54.2,52.5,29.93,NW,325,0.0,0.0,94,0.00,,SCT250,0.00,VWS V14.01,2013-09-25 13:08:00,
2013-09-25 08:10:00,54.2,52.5,29.93,NW,325,0.0,0.0,94,0.00,,CLR,0.00,VWS V14.01,2013-09-25 13:10:00,
2013-09-25 08:13:00,54.7,53.0,29.94,NW,325,0.0,0.0,94,0.00,,SCT250,0.00,VWS V14.01,2013-09-25 13:13:00,
2013-09-25 08:15:00,54.8,53.1,29.94,NW,325,0.0,0.0,94,0.00,,CLR,0.00,VWS V14.01,2013-09-25 13:15:00,
2013-09-25 08:19:00,55.2,53.5,29.94,NW,325,0.0,0.0,94,0.00,,SCT250,0.00,VWS V14.01,2013-09-25 13:19:00,
2013-09-25 08:20:00,55.3,53.6,29.94,NW,325,0.0,0.0,94,0.00,,CLR,0.00,VWS V14.01,2013-09-25 13:20:00,
2013-09-25 08:24:00,55.6,53.9,29.94,North,355,0.0,0.0,94,0.00,,SCT250,0.00,VWS V14.01,2013-09-25 13:24:00,
2013-09-25 08:25:00,55.7,54.0,29.94,NNW,344,0.0,0.0,94,0.00,,CLR,0.00,VWS V14.01,2013-09-25 13:25:00,
2013-09-25 08:29:00,55.9,53.9,29.94,NNW,344,0.0,0.0,93,0.00,,SCT250,0.00,VWS V14.01,2013-09-25 13:29:00,
2013-09-25 08:30:00,55.9,53.9,29.94,NNW,344,0.0,0.0,93,0.00,,CLR,0.00,VWS V14.01,2013-09-25 13:30:00,
2013-09-25 08:34:00,56.3,54.3,29.94,NNW,344,0.0,0.0,93,0.00,,SCT250,0.00,VWS V14.01,2013-09-25 13:34:00,
2013-09-25 08:35:00,56.4,54.4,29.94,NNW,344,0.0,0.0,93,0.00,,CLR,0.00,VWS V14.01,2013-09-25 13:35:00,
2013-09-25 08:39:00,57.1,55.1,29.94,NW,326,0.0,0.0,93,0.00,,SCT250,0.00,VWS V14.01,2013-09-25 13:39:00,
2013-09-25 08:40:00,57.2,55.2,29.94,NW,326,0.0,0.0,93,0.00,,CLR,0.00,VWS V14.01,2013-09-25 13:40:00,
2013-09-25 08:44:00,57.8,55.8,29.94,NW,325,0.0,0.0,93,0.00,,SCT250,0.00,VWS V14.01,2013-09-25 13:44:00,
2013-09-25 08:45:00,58.0,56.0,29.94,NW,325,0.0,0.0,93,0.00,,CLR,0.00,VWS V14.01,2013-09-25 13:45:00,
2013-09-25 08:49:00,58.7,56.7,29.93,NW,325,0.0,0.0,93,0.00,,SCT250,0.00,VWS V14.01,2013-09-25 13:49:00,
2013-09-25 08:50:00,58.8,56.5,29.93,NW,325,0.0,0.0,92,0.00,,CLR,0.00,VWS V14.01,2013-09-25 13:50:00,
2013-09-25 08:54:00,59.6,57.3,29.93,NE,40,0.0,0.0,92,0.00,,SCT250,0.00,VWS V14.01,2013-09-25 13:54:00,
2013-09-25 08:55:00,59.7,57.4,29.93,NE,48,5.0,5.0,92,0.00,,CLR,0.00,VWS V14.01,2013-09-25 13:55:00,
2013-09-25 08:59:00,60.5,57.6,29.93,NE,38,3.0,7.0,90,0.00,,SCT250,0.00,VWS V14.01,2013-09-25 13:59:00,
2013-09-25 09:00:00,60.5,57.2,29.93,NE,42,5.0,7.0,89,0.00,,CLR,0.00,VWS V14.01,2013-09-25 14:00:00,
2013-09-25 09:04:00,61.1,57.5,29.93,NE,41,5.0,6.0,88,0.00,,SCT250,0.00,VWS V14.01,2013-09-25 14:04:00,
2013-09-25 09:05:00,61.2,57.6,29.93,NNE,22,7.0,7.0,88,0.00,,CLR,0.00,VWS V14.01,2013-09-25 14:05:00,
2013-09-25 09:09:00,61.7,57.8,29.93,NE,46,4.0,6.0,87,0.00,,SCT250,0.00,VWS V14.01,2013-09-25 14:09:00,
2013-09-25 09:10:00,61.8,57.9,29.93,NE,41,5.0,6.0,87,0.00,,CLR,0.00,VWS V14.01,2013-09-25 14:10:00,
2013-09-25 09:14:00,62.2,58.0,29.94,NE,40,0.0,7.0,86,0.00,,SCT250,0.00,VWS V14.01,2013-09-25 14:14:00,
2013-09-25 09:15:00,62.2,58.0,29.94,NE,45,2.0,7.0,86,0.00,,CLR,0.00,VWS V14.01,2013-09-25 14:15:00,
2013-09-25 09:19:00,62.6,57.7,29.94,NNE,21,3.0,7.0,84,0.00,,SCT250,0.00,VWS V14.01,2013-09-25 14:19:00,
2013-09-25 09:20:00,62.6,57.7,29.94,ENE,70,2.0,7.0,84,0.00,,CLR,0.00,VWS V14.01,2013-09-25 14:20:00,
2013-09-25 09:24:00,63.1,58.2,29.94,NNE,26,5.0,7.0,84,0.00,,SCT250,0.00,VWS V14.01,2013-09-25 14:24:00,
2013-09-25 09:25:00,63.1,58.2,29.94,NNE,15,5.0,7.0,84,0.00,,CLR,0.00,VWS V14.01,2013-09-25 14:25:00,
2013-09-25 09:29:00,63.3,58.1,29.93,NE,34,4.0,7.0,83,0.00,,SCT250,0.00,VWS V14.01,2013-09-25 14:29:00,
2013-09-25 09:30:00,63.3,58.1,29.93,NNE,28,6.0,7.0,83,0.00,,CLR,0.00,VWS V14.01,2013-09-25 14:30:00,
2013-09-25 09:34:00,63.4,58.2,29.94,NE,34,6.0,9.0,83,0.00,,SCT250,0.00,VWS V14.01,2013-09-25 14:34:00,
2013-09-25 09:35:00,63.4,58.2,29.94,NE,37,5.0,9.0,83,0.00,,CLR,0.00,VWS V14.01,2013-09-25 14:35:00,
2013-09-25 09:39:00,63.7,58.5,29.94,NNE,32,3.0,7.0,83,0.00,,SCT250,0.00,VWS V14.01,2013-09-25 14:39:00,
2013-09-25 09:40:00,63.7,58.5,29.94,NNE,32,3.0,7.0,83,0.00,,CLR,0.00,VWS V14.01,2013-09-25 14:40:00,
2013-09-25 09:44:00,63.8,58.2,29.94,NNE,30,6.0,8.0,82,0.00,,SCT250,0.00,VWS V14.01,2013-09-25 14:44:00,
2013-09-25 09:45:00,63.8,58.2,29.94,NNE,30,6.0,8.0,82,0.00,,CLR,0.00,VWS V14.01,2013-09-25 14:45:00,
2013-09-25 09:50:00,64.0,58.1,29.94,East,89,5.0,7.0,81,0.00,,SCT250,0.00,VWS V14.01,2013-09-25 14:50:00,
2013-09-25 09:55:00,64.4,57.0,29.94,East,92,3.0,8.0,77,0.00,,SCT250,0.00,VWS V14.01,2013-09-25 14:55:00,
2013-09-25 10:00:00,64.7,57.0,29.93,ESE,103,3.0,9.0,76,0.00,,SCT250,0.00,VWS V14.01,2013-09-25 15:00:00,
2013-09-25 10:05:00,64.9,57.2,29.93,East,101,0.0,9.0,76,0.00,,SCT250,0.00,VWS V14.01,2013-09-25 15:05:00,
2013-09-25 10:10:00,65.4,56.9,29.94,East,92,2.0,9.0,74,0.00,,SCT250,0.00,VWS V14.01,2013-09-25 15:10:00,
2013-09-25 10:15:00,65.4,56.5,29.94,ESE,115,1.0,9.0,73,0.00,,SCT250,0.00,VWS V14.01,2013-09-25 15:15:00,
2013-09-25 10:20:00,65.6,56.7,29.94,ESE,116,0.0,7.0,73,0.00,,SCT250,0.00,VWS V14.01,2013-09-25 15:20:00,
2013-09-25 10:25:00,65.6,57.1,29.94,East,97,0.0,9.0,74,0.00,,SCT250,0.00,VWS V14.01,2013-09-25 15:25:00,
2013-09-25 10:30:00,65.6,57.1,29.94,ENE,67,0.0,9.0,74,0.00,,SCT250,0.00,VWS V14.01,2013-09-25 15:30:00,
2013-09-25 10:35:00,65.9,56.6,29.94,ESE,105,4.0,8.0,72,0.00,,SCT250,0.00,VWS V14.01,2013-09-25 15:35:00,
2013-09-25 10:40:00,66.1,57.6,29.94,East,85,2.0,7.0,74,0.00,,SCT250,0.00,VWS V14.01,2013-09-25 15:40:00,
2013-09-25 10:45:00,66.0,56.7,29.95,East,94,0.0,9.0,72,0.00,,SCT250,0.00,VWS V14.01,2013-09-25 15:45:00,
2013-09-25 10:50:00,66.0,57.9,29.95,ENE,76,0.0,8.0,75,0.00,,SCT250,0.00,VWS V14.01,2013-09-25 15:50:00,
2013-09-25 10:55:00,66.4,57.9,29.95,ENE,75,1.0,5.0,74,0.00,,SCT250,0.00,VWS V14.01,2013-09-25 15:55:00,
2013-09-25 11:00:00,66.5,58.0,29.94,SE,130,2.0,7.0,74,0.00,,SCT240,0.00,VWS V14.01,2013-09-25 16:00:00,
2013-09-25 11:05:00,66.2,58.0,29.94,East,91,7.0,9.0,75,0.00,,SCT240,0.00,VWS V14.01,2013-09-25 16:05:00,
2013-09-25 11:10:00,65.9,57.4,29.94,ESE,103,4.0,10.0,74,0.00,,SCT240,0.00,VWS V14.01,2013-09-25 16:10:00,
2013-09-25 11:15:00,65.8,57.3,29.94,ESE,106,7.0,9.0,74,0.00,,CLR,0.00,VWS V14.01,2013-09-25 16:15:00,
2013-09-25 11:16:00,65.7,57.2,29.94,ESE,108,5.0,9.0,74,0.00,,SCT240,0.00,VWS V14.01,2013-09-25 16:16:00,
2013-09-25 11:20:00,65.5,57.4,29.94,East,90,2.0,8.0,75,0.00,,CLR,0.00,VWS V14.01,2013-09-25 16:20:00,
2013-09-25 11:21:00,65.5,57.4,29.94,East,96,2.0,8.0,75,0.00,,SCT240,0.00,VWS V14.01,2013-09-25 16:21:00,
2013-09-25 11:25:00,65.9,57.8,29.94,East,97,1.0,7.0,75,0.00,,CLR,0.00,VWS V14.01,2013-09-25 16:25:00,
2013-09-25 11:26:00,65.9,57.0,29.94,East,80,3.0,8.0,73,0.00,,SCT240,0.00,VWS V14.01,2013-09-25 16:26:00,
2013-09-25 11:30:00,65.7,56.8,29.94,East,92,2.0,8.0,73,0.00,,CLR,0.00,VWS V14.01,2013-09-25 16:30:00,
2013-09-25 11:31:00,65.7,57.2,29.94,East,90,5.0,8.0,74,0.00,,SCT240,0.00,VWS V14.01,2013-09-25 16:31:00,
2013-09-25 11:35:00,65.6,57.5,29.94,East,87,6.0,8.0,75,0.00,,CLR,0.00,VWS V14.01,2013-09-25 16:35:00,
2013-09-25 11:36:00,65.5,57.0,29.94,East,86,2.0,8.0,74,0.00,,SCT240,0.00,VWS V14.01,2013-09-25 16:36:00,
2013-09-25 11:40:00,65.6,57.1,29.94,East,95,5.0,8.0,74,0.00,,CLR,0.00,VWS V14.01,2013-09-25 16:40:00,
2013-09-25 11:41:00,65.8,57.3,29.94,East,94,0.0,8.0,74,0.00,,SCT240,0.00,VWS V14.01,2013-09-25 16:41:00,
2013-09-25 11:45:00,66.1,57.2,29.94,East,100,0.0,8.0,73,0.00,,CLR,0.00,VWS V14.01,2013-09-25 16:45:00,
2013-09-25 11:46:00,66.1,57.6,29.94,East,98,2.0,8.0,74,0.00,,SCT240,0.00,VWS V14.01,2013-09-25 16:46:00,
2013-09-25 11:50:00,66.2,57.3,29.94,East,88,2.0,7.0,73,0.00,,CLR,0.00,VWS V14.01,2013-09-25 16:50:00,
2013-09-25 11:51:00,66.2,57.3,29.94,East,94,3.0,7.0,73,0.00,,SCT240,0.00,VWS V14.01,2013-09-25 16:51:00,
2013-09-25 11:55:00,66.1,57.2,29.94,ESE,107,5.0,9.0,73,0.00,,CLR,0.00,VWS V14.01,2013-09-25 16:55:00,
2013-09-25 11:56:00,66.0,57.1,29.94,East,90,7.0,9.0,73,0.00,,SCT240,0.00,VWS V14.01,2013-09-25 16:56:00,
2013-09-25 12:00:00,65.9,57.0,29.94,ESE,103,5.0,9.0,73,0.00,,CLR,0.00,VWS V14.01,2013-09-25 17:00:00,
2013-09-25 12:01:00,65.7,56.8,29.94,East,87,7.0,9.0,73,0.00,,FEW025,0.00,VWS V14.01,2013-09-25 17:01:00,
2013-09-25 12:05:00,65.8,57.3,29.94,East,98,0.0,8.0,74,0.00,,CLR,0.00,VWS V14.01,2013-09-25 17:05:00,
2013-09-25 12:06:00,66.0,57.5,29.94,East,101,1.0,7.0,74,0.00,,FEW025,0.00,VWS V14.01,2013-09-25 17:06:00,
2013-09-25 12:10:00,65.9,57.0,29.94,ESE,107,0.0,9.0,73,0.00,,CLR,0.00,VWS V14.01,2013-09-25 17:10:00,
2013-09-25 12:11:00,65.9,57.0,29.94,East,92,5.0,9.0,73,0.00,,FEW025,0.00,VWS V14.01,2013-09-25 17:11:00,
2013-09-25 12:15:00,65.8,57.3,29.94,East,97,0.0,7.0,74,0.00,,CLR,0.00,VWS V14.01,2013-09-25 17:15:00,
2013-09-25 12:16:00,65.9,57.4,29.94,East,97,6.0,7.0,74,0.00,,FEW025,0.00,VWS V14.01,2013-09-25 17:16:00,
2013-09-25 12:20:00,65.9,57.0,29.94,ESE,104,2.0,8.0,73,0.00,,CLR,0.00,VWS V14.01,2013-09-25 17:20:00,
2013-09-25 12:21:00,65.8,56.9,29.94,East,94,5.0,9.0,73,0.00,,FEW025,0.00,VWS V14.01,2013-09-25 17:21:00,
2013-09-25 12:25:00,65.5,57.0,29.94,East,92,6.0,8.0,74,0.00,,CLR,0.00,VWS V14.01,2013-09-25 17:25:00,
2013-09-25 12:26:00,65.5,57.0,29.94,ESE,111,3.0,8.0,74,0.00,,FEW025,0.00,VWS V14.01,2013-09-25 17:26:00,
2013-09-25 12:30:00,65.8,57.3,29.94,ESE,107,4.0,8.0,74,0.00,,CLR,0.00,VWS V14.01,2013-09-25 17:30:00,
2013-09-25 12:31:00,66.0,57.1,29.94,East,87,7.0,8.0,73,0.00,,FEW025,0.00,VWS V14.01,2013-09-25 17:31:00,
2013-09-25 12:35:00,66.0,57.5,29.94,East,94,0.0,8.0,74,0.00,,CLR,0.00,VWS V14.01,2013-09-25 17:35:00,
2013-09-25 12:36:00,66.1,57.2,29.93,East,95,3.0,8.0,73,0.00,,FEW025,0.00,VWS V14.01,2013-09-25 17:36:00,
2013-09-25 12:40:00,66.1,57.2,29.94,ESE,103,4.0,8.0,73,0.00,,CLR,0.00,VWS V14.01,2013-09-25 17:40:00,
2013-09-25 12:41:00,65.9,57.0,29.94,East,91,1.0,8.0,73,0.00,,FEW025,0.00,VWS V14.01,2013-09-25 17:41:00,
2013-09-25 12:45:00,65.8,56.9,29.93,East,85,0.0,7.0,73,0.00,,CLR,0.00,VWS V14.01,2013-09-25 17:45:00,
2013-09-25 12:47:00,65.9,57.0,29.93,East,101,5.0,8.0,73,0.00,,FEW025,0.00,VWS V14.01,2013-09-25 17:47:00,
2013-09-25 12:50:00,65.7,56.8,29.93,East,80,3.0,8.0,73,0.00,,CLR,0.00,VWS V14.01,2013-09-25 17:50:00,
2013-09-25 12:52:00,65.7,57.2,29.93,East,83,2.0,7.0,74,0.00,,FEW025,0.00,VWS V14.01,2013-09-25 17:52:00,
2013-09-25 12:55:00,65.6,57.1,29.93,East,94,1.0,7.0,74,0.00,,CLR,0.00,VWS V14.01,2013-09-25 17:55:00,
2013-09-25 12:57:00,65.7,57.2,29.93,East,101,5.0,7.0,74,0.00,,FEW025,0.00,VWS V14.01,2013-09-25 17:57:00,
2013-09-25 13:00:00,65.4,56.5,29.93,East,96,0.0,6.0,73,0.00,,CLR,0.00,VWS V14.01,2013-09-25 18:00:00,
2013-09-25 13:02:00,65.4,56.9,29.93,East,80,2.0,8.0,74,0.00,,SCT025,0.00,VWS V14.01,2013-09-25 18:02:00,
2013-09-25 13:05:00,65.1,56.2,29.93,ESE,106,3.0,8.0,73,0.00,,CLR,0.00,VWS V14.01,2013-09-25 18:05:00,
2013-09-25 13:07:00,64.9,56.4,29.93,ESE,107,0.0,8.0,74,0.00,,SCT025,0.00,VWS V14.01,2013-09-25 18:07:00,
2013-09-25 13:10:00,65.0,56.5,29.93,ENE,69,4.0,7.0,74,0.00,,CLR,0.00,VWS V14.01,2013-09-25 18:10:00,
2013-09-25 13:12:00,65.2,57.1,29.93,East,83,2.0,8.0,75,0.00,,SCT025,0.00,VWS V14.01,2013-09-25 18:12:00,
2013-09-25 13:15:00,65.4,56.9,29.93,East,99,0.0,7.0,74,0.00,,CLR,0.00,VWS V14.01,2013-09-25 18:15:00,
2013-09-25 13:17:00,65.5,57.0,29.93,East,84,0.0,7.0,74,0.00,,SCT025,0.00,VWS V14.01,2013-09-25 18:17:00,
2013-09-25 13:20:00,65.6,56.7,29.93,East,92,1.0,6.0,73,0.00,,CLR,0.00,VWS V14.01,2013-09-25 18:20:00,
2013-09-25 13:22:00,65.5,57.0,29.92,East,95,2.0,7.0,74,0.00,,SCT025,0.00,VWS V14.01,2013-09-25 18:22:00,
2013-09-25 13:25:00,65.6,57.5,29.93,East,95,6.0,6.0,75,0.00,,CLR,0.00,VWS V14.01,2013-09-25 18:25:00,
2013-09-25 13:27:00,65.6,56.7,29.92,ESE,102,0.0,7.0,73,0.00,,SCT025,0.00,VWS V14.01,2013-09-25 18:27:00,
2013-09-25 13:30:00,65.6,56.7,29.92,East,82,0.0,7.0,73,0.00,,CLR,0.00,VWS V14.01,2013-09-25 18:30:00,
2013-09-25 13:32:00,65.4,56.5,29.92,ENE,73,1.0,6.0,73,0.00,,SCT025,0.00,VWS V14.01,2013-09-25 18:32:00,
2013-09-25 13:35:00,65.6,57.1,29.92,ESE,103,7.0,8.0,74,0.00,,CLR,0.00,VWS V14.01,2013-09-25 18:35:00,
2013-09-25 13:37:00,65.7,56.8,29.92,ESE,107,5.0,8.0,73,0.00,,SCT025,0.00,VWS V14.01,2013-09-25 18:37:00,
2013-09-25 13:40:00,65.7,56.8,29.92,East,95,3.0,7.0,73,0.00,,CLR,0.00,VWS V14.01,2013-09-25 18:40:00,
2013-09-25 13:42:00,65.6,56.7,29.93,East,86,1.0,7.0,73,0.00,,SCT025,0.00,VWS V14.01,2013-09-25 18:42:00,
2013-09-25 13:45:00,65.4,56.2,29.93,East,90,0.0,7.0,72,0.00,,CLR,0.00,VWS V14.01,2013-09-25 18:45:00,
2013-09-25 13:47:00,65.3,56.4,29.93,East,97,0.0,6.0,73,0.00,,SCT025,0.00,VWS V14.01,2013-09-25 18:47:00,
2013-09-25 13:50:00,65.5,57.0,29.92,East,79,3.0,5.0,74,0.00,,CLR,0.00,VWS V14.01,2013-09-25 18:50:00,
2013-09-25 13:52:00,65.2,56.0,29.92,ENE,73,2.0,5.0,72,0.00,,SCT025,0.00,VWS V14.01,2013-09-25 18:52:00,
2013-09-25 13:55:00,64.9,56.0,29.92,ENE,66,4.0,7.0,73,0.00,,CLR,0.00,VWS V14.01,2013-09-25 18:55:00,
2013-09-25 13:57:00,64.8,56.0,29.92,NE,53,4.0,7.0,73,0.00,,SCT025,0.00,VWS V14.01,2013-09-25 18:57:00,
2013-09-25 14:00:00,64.7,56.2,29.92,ENE,59,1.0,7.0,74,0.00,,CLR,0.00,VWS V14.01,2013-09-25 19:00:00,
2013-09-25 14:02:00,64.8,56.0,29.92,East,87,6.0,6.0,73,0.00,,FEW025,0.00,VWS V14.01,2013-09-25 19:02:00,
2013-09-25 14:05:00,64.8,56.0,29.92,East,79,6.0,6.0,73,0.00,,CLR,0.00,VWS V14.01,2013-09-25 19:05:00,
2013-09-25 14:07:00,64.6,55.8,29.92,NE,46,4.0,7.0,73,0.00,,FEW025,0.00,VWS V14.01,2013-09-25 19:07:00,
2013-09-25 14:10:00,64.7,56.2,29.92,East,83,5.0,7.0,74,0.00,,CLR,0.00,VWS V14.01,2013-09-25 19:10:00,
2013-09-25 14:12:00,64.8,56.0,29.92,East,80,3.0,8.0,73,0.00,,FEW025,0.00,VWS V14.01,2013-09-25 19:12:00,
2013-09-25 14:15:00,64.8,56.0,29.92,East,101,5.0,8.0,73,0.00,,CLR,0.00,VWS V14.01,2013-09-25 19:15:00,
2013-09-25 14:18:00,64.7,55.9,29.92,East,83,6.0,7.0,73,0.00,,FEW025,0.00,VWS V14.01,2013-09-25 19:18:00,
2013-09-25 14:20:00,64.5,56.4,29.92,NE,53,4.0,7.0,75,0.00,,CLR,0.00,VWS V14.01,2013-09-25 19:20:00,
2013-09-25 14:23:00,64.5,56.8,29.92,ENE,74,4.0,7.0,76,0.00,,FEW025,0.00,VWS V14.01,2013-09-25 19:23:00,
2013-09-25 14:25:00,64.7,56.6,29.92,ENE,67,0.0,7.0,75,0.00,,CLR,0.00,VWS V14.01,2013-09-25 19:25:00,
2013-09-25 14:28:00,65.0,56.5,29.92,East,88,6.0,8.0,74,0.00,,FEW025,0.00,VWS V14.01,2013-09-25 19:28:00,
2013-09-25 14:30:00,65.0,56.2,29.92,East,89,7.0,8.0,73,0.00,,CLR,0.00,VWS V14.01,2013-09-25 19:30:00,
2013-09-25 14:33:00,65.0,56.2,29.92,East,79,7.0,7.0,73,0.00,,FEW025,0.00,VWS V14.01,2013-09-25 19:33:00,
2013-09-25 14:35:00,64.9,56.0,29.92,ENE,71,7.0,7.0,73,0.00,,CLR,0.00,VWS V14.01,2013-09-25 19:35:00,
2013-09-25 14:38:00,64.5,55.3,29.92,East,81,7.0,9.0,72,0.00,,FEW025,0.00,VWS V14.01,2013-09-25 19:38:00,
2013-09-25 14:40:00,64.3,55.5,29.92,NE,51,4.0,8.0,73,0.00,,CLR,0.00,VWS V14.01,2013-09-25 19:40:00,
2013-09-25 14:43:00,64.2,55.8,29.92,ENE,64,5.0,7.0,74,0.00,,FEW025,0.00,VWS V14.01,2013-09-25 19:43:00,
2013-09-25 14:45:00,64.1,55.7,29.92,East,86,6.0,8.0,74,0.00,,CLR,0.00,VWS V14.01,2013-09-25 19:45:00,
2013-09-25 14:48:00,64.3,55.8,29.92,NE,54,3.0,8.0,74,0.00,,FEW025,0.00,VWS V14.01,2013-09-25 19:48:00,
2013-09-25 14:50:00,64.3,56.2,29.92,NE,48,1.0,8.0,75,0.00,,CLR,0.00,VWS V14.01,2013-09-25 19:50:00,
2013-09-25 14:53:00,64.4,56.3,29.92,ENE,64,5.0,8.0,75,0.00,,FEW025,0.00,VWS V14.01,2013-09-25 19:53:00,
2013-09-25 14:55:00,64.4,56.3,29.92,East,85,7.0,8.0,75,0.00,,CLR,0.00,VWS V14.01,2013-09-25 19:55:00,
2013-09-25 14:58:00,64.4,55.9,29.92,ENE,62,8.0,9.0,74,0.00,,FEW025,0.00,VWS V14.01,2013-09-25 19:58:00,
2013-09-25 15:00:00,64.3,55.5,29.92,ENE,74,8.0,9.0,73,0.00,,CLR,0.00,VWS V14.01,2013-09-25 20:00:00,
2013-09-25 15:03:00,64.1,55.7,29.92,ENE,78,7.0,8.0,74,0.00,,FEW025,0.00,VWS V14.01,2013-09-25 20:03:00,
2013-09-25 15:05:00,64.0,55.6,29.92,ENE,70,5.0,8.0,74,0.00,,CLR,0.00,VWS V14.01,2013-09-25 20:05:00,
2013-09-25 15:08:00,64.0,55.9,29.92,East,90,6.0,8.0,75,0.00,,FEW025,0.00,VWS V14.01,2013-09-25 20:08:00,
2013-09-25 15:10:00,64.0,55.9,29.92,ENE,70,4.0,9.0,75,0.00,,CLR,0.00,VWS V14.01,2013-09-25 20:10:00,
2013-09-25 15:13:00,64.2,55.8,29.92,ENE,78,3.0,7.0,74,0.00,,FEW025,0.00,VWS V14.01,2013-09-25 20:13:00,
2013-09-25 15:15:00,64.2,55.4,29.92,East,86,3.0,7.0,73,0.00,,CLR,0.00,VWS V14.01,2013-09-25 20:15:00,
2013-09-25 15:18:00,64.3,55.8,29.92,NE,50,1.0,6.0,74,0.00,,FEW025,0.00,VWS V14.01,2013-09-25 20:18:00,
2013-09-25 15:20:00,64.3,55.8,29.92,ENE,65,4.0,7.0,74,0.00,,CLR,0.00,VWS V14.01,2013-09-25 20:20:00,
2013-09-25 15:23:00,64.3,55.5,29.92,ENE,73,3.0,8.0,73,0.00,,FEW025,0.00,VWS V14.01,2013-09-25 20:23:00,
2013-09-25 15:25:00,64.3,55.8,29.92,NE,43,0.0,8.0,74,0.00,,CLR,0.00,VWS V14.01,2013-09-25 20:25:00,
2013-09-25 15:28:00,64.2,55.8,29.92,ENE,68,8.0,8.0,74,0.00,,FEW025,0.00,VWS V14.01,2013-09-25 20:28:00,
2013-09-25 15:30:00,64.1,55.7,29.92,East,86,6.0,8.0,74,0.00,,CLR,0.00,VWS V14.01,2013-09-25 20:30:00,
2013-09-25 15:33:00,64.1,55.3,29.92,East,80,6.0,8.0,73,0.00,,FEW025,0.00,VWS V14.01,2013-09-25 20:33:00,
2013-09-25 15:35:00,64.0,55.2,29.92,ENE,73,4.0,8.0,73,0.00,,CLR,0.00,VWS V14.01,2013-09-25 20:35:00,
2013-09-25 15:38:00,63.9,55.8,29.92,NE,38,3.0,9.0,75,0.00,,FEW025,0.00,VWS V14.01,2013-09-25 20:38:00,
2013-09-25 15:40:00,64.0,55.6,29.92,ENE,74,3.0,9.0,74,0.00,,CLR,0.00,VWS V14.01,2013-09-25 20:40:00,
2013-09-25 15:43:00,64.1,55.3,29.92,ENE,58,4.0,6.0,73,0.00,,FEW025,0.00,VWS V14.01,2013-09-25 20:43:00,
2013-09-25 15:45:00,64.1,55.3,29.92,NE,51,0.0,6.0,73,0.00,,CLR,0.00,VWS V14.01,2013-09-25 20:45:00,
2013-09-25 15:49:00,64.2,55.8,29.92,NNE,24,4.0,7.0,74,0.00,,FEW025,0.00,VWS V14.01,2013-09-25 20:49:00,
2013-09-25 15:50:00,64.2,55.8,29.92,NNE,30,2.0,7.0,74,0.00,,CLR,0.00,VWS V14.01,2013-09-25 20:50:00,
2013-09-25 15:54:00,64.2,55.8,29.92,ENE,77,4.0,7.0,74,0.00,,FEW025,0.00,VWS V14.01,2013-09-25 20:54:00,
2013-09-25 15:55:00,64.1,55.7,29.92,ENE,60,7.0,7.0,74,0.00,,CLR,0.00,VWS V14.01,2013-09-25 20:55:00,
2013-09-25 15:59:00,64.0,55.9,29.92,NNE,30,0.0,7.0,75,0.00,,FEW025,0.00,VWS V14.01,2013-09-25 20:59:00,
2013-09-25 16:00:00,64.1,56.0,29.92,East,80,5.0,7.0,75,0.00,,CLR,0.00,VWS V14.01,2013-09-25 21:00:00,
2013-09-25 16:04:00,64.2,55.8,29.92,East,81,8.0,8.0,74,0.00,,FEW025,0.00,VWS V14.01,2013-09-25 21:04:00,
2013-09-25 16:05:00,64.2,55.8,29.92,ENE,77,4.0,8.0,74,0.00,,CLR,0.00,VWS V14.01,2013-09-25 21:05:00,
2013-09-25 16:09:00,63.8,55.4,29.92,NE,34,4.0,7.0,74,0.00,,FEW025,0.00,VWS V14.01,2013-09-25 21:09:00,
2013-09-25 16:10:00,63.9,55.8,29.92,NE,54,2.0,7.0,75,0.00,,CLR,0.00,VWS V14.01,2013-09-25 21:10:00,
2013-09-25 16:14:00,64.0,55.6,29.92,NE,49,0.0,7.0,74,0.00,,FEW025,0.00,VWS V14.01,2013-09-25 21:14:00,
2013-09-25 16:15:00,64.1,55.7,29.92,NE,45,3.0,7.0,74,0.00,,CLR,0.00,VWS V14.01,2013-09-25 21:15:00,
2013-09-25 16:19:00,64.2,55.8,29.92,ENE,57,1.0,8.0,74,0.00,,FEW025,0.00,VWS V14.01,2013-09-25 21:19:00,
2013-09-25 16:20:00,64.2,55.8,29.92,NNE,31,5.0,8.0,74,0.00,,CLR,0.00,VWS V14.01,2013-09-25 21:20:00,
2013-09-25 16:24:00,63.9,55.1,29.92,NNE,31,5.0,8.0,73,0.00,,FEW025,0.00,VWS V14.01,2013-09-25 21:24:00,
2013-09-25 16:25:00,63.8,55.0,29.92,NE,39,3.0,7.0,73,0.00,,CLR,0.00,VWS V14.01,2013-09-25 21:25:00,
2013-09-25 16:29:00,63.7,54.9,29.92,NE,42,4.0,8.0,73,0.00,,FEW025,0.00,VWS V14.01,2013-09-25 21:29:00,
2013-09-25 16:30:00,63.7,54.9,29.92,ENE,71,7.0,8.0,73,0.00,,CLR,0.00,VWS V14.01,2013-09-25 21:30:00,
2013-09-25 16:34:00,63.5,55.1,29.92,ENE,72,3.0,8.0,74,0.00,,FEW025,0.00,VWS V14.01,2013-09-25 21:34:00,
2013-09-25 16:35:00,63.5,55.1,29.92,NE,51,0.0,8.0,74,0.00,,CLR,0.00,VWS V14.01,2013-09-25 21:35:00,
2013-09-25 16:39:00,63.5,55.4,29.92,ENE,76,5.0,8.0,75,0.00,,FEW025,0.00,VWS V14.01,2013-09-25 21:39:00,
2013-09-25 16:40:00,63.5,55.4,29.92,ENE,62,4.0,8.0,75,0.00,,CLR,0.00,VWS V14.01,2013-09-25 21:40:00,
2013-09-25 16:44:00,63.5,55.8,29.91,NE,51,5.0,8.0,76,0.00,,FEW025,0.00,VWS V14.01,2013-09-25 21:44:00,
2013-09-25 16:45:00,63.5,55.8,29.91,NE,51,2.0,8.0,76,0.00,,CLR,0.00,VWS V14.01,2013-09-25 21:45:00,
2013-09-25 16:49:00,63.5,55.8,29.91,ENE,69,4.0,8.0,76,0.00,,FEW025,0.00,VWS V14.01,2013-09-25 21:49:00,
2013-09-25 16:50:00,63.5,55.8,29.91,ENE,71,7.0,8.0,76,0.00,,CLR,0.00,VWS V14.01,2013-09-25 21:50:00,
2013-09-25 16:54:00,63.4,55.7,29.91,ENE,74,8.0,8.0,76,0.00,,FEW025,0.00,VWS V14.01,2013-09-25 21:54:00,
2013-09-25 16:55:00,63.4,55.7,29.91,ENE,59,7.0,9.0,76,0.00,,CLR,0.00,VWS V14.01,2013-09-25 21:55:00,
2013-09-25 16:59:00,63.1,55.4,29.92,NE,53,4.0,9.0,76,0.00,,FEW025,0.00,VWS V14.01,2013-09-25 21:59:00,
2013-09-25 17:00:00,63.1,55.4,29.92,North,360,4.0,9.0,76,0.00,,CLR,0.00,VWS V14.01,2013-09-25 22:00:00,
2013-09-25 17:04:00,63.1,55.8,29.92,ENE,59,2.0,11.0,77,0.00,,FEW025,0.00,VWS V14.01,2013-09-25 22:04:00,
2013-09-25 17:05:00,63.1,55.8,29.92,ENE,59,2.0,11.0,77,0.00,,CLR,0.00,VWS V14.01,2013-09-25 22:05:00,
2013-09-25 17:09:00,63.0,55.3,29.92,ENE,72,4.0,9.0,76,0.00,,FEW025,0.00,VWS V14.01,2013-09-25 22:09:00,
2013-09-25 17:10:00,63.0,55.3,29.92,ENE,72,4.0,9.0,76,0.00,,CLR,0.00,VWS V14.01,2013-09-25 22:10:00,
2013-09-25 17:14:00,62.9,55.6,29.92,ENE,63,8.0,8.0,77,0.00,,FEW025,0.00,VWS V14.01,2013-09-25 22:14:00,
2013-09-25 17:15:00,62.9,55.6,29.92,ENE,63,8.0,8.0,77,0.00,,CLR,0.00,VWS V14.01,2013-09-25 22:15:00,
2013-09-25 17:19:00,62.8,55.5,29.92,NE,48,7.0,10.0,77,0.00,,FEW025,0.00,VWS V14.01,2013-09-25 22:19:00,
2013-09-25 17:20:00,62.8,55.5,29.92,NE,48,7.0,10.0,77,0.00,,CLR,0.00,VWS V14.01,2013-09-25 22:20:00,
2013-09-25 17:24:00,62.7,55.8,29.92,NNE,29,6.0,10.0,78,0.00,,FEW025,0.00,VWS V14.01,2013-09-25 22:24:00,
2013-09-25 17:25:00,62.7,55.8,29.92,NNE,29,6.0,10.0,78,0.00,,CLR,0.00,VWS V14.01,2013-09-25 22:25:00,
2013-09-25 17:29:00,62.7,55.4,29.92,ENE,71,5.0,8.0,77,0.00,,FEW025,0.00,VWS V14.01,2013-09-25 22:29:00,
2013-09-25 17:30:00,62.7,55.4,29.92,ENE,71,5.0,8.0,77,0.00,,CLR,0.00,VWS V14.01,2013-09-25 22:30:00,
2013-09-25 17:34:00,62.7,55.4,29.91,NE,44,2.0,9.0,77,0.00,,FEW025,0.00,VWS V14.01,2013-09-25 22:34:00,
2013-09-25 17:35:00,62.7,55.4,29.91,NE,44,2.0,9.0,77,0.00,,CLR,0.00,VWS V14.01,2013-09-25 22:35:00,
2013-09-25 17:39:00,62.5,55.2,29.91,NE,36,6.0,10.0,77,0.00,,FEW025,0.00,VWS V14.01,2013-09-25 22:39:00,
2013-09-25 17:40:00,62.5,55.2,29.91,NE,36,6.0,10.0,77,0.00,,CLR,0.00,VWS V14.01,2013-09-25 22:40:00,
2013-09-25 17:44:00,62.5,55.2,29.91,NNE,30,5.0,9.0,77,0.00,,FEW025,0.00,VWS V14.01,2013-09-25 22:44:00,
2013-09-25 17:45:00,62.5,55.2,29.91,NNE,30,5.0,9.0,77,0.00,,CLR,0.00,VWS V14.01,2013-09-25 22:45:00,
2013-09-25 17:49:00,62.5,55.2,29.91,NE,44,6.0,9.0,77,0.00,,FEW025,0.00,VWS V14.01,2013-09-25 22:49:00,
2013-09-25 17:50:00,62.5,55.2,29.91,NE,44,6.0,9.0,77,0.00,,CLR,0.00,VWS V14.01,2013-09-25 22:50:00,
2013-09-25 17:54:00,62.5,54.8,29.92,NE,43,5.0,7.0,76,0.00,,FEW025,0.00,VWS V14.01,2013-09-25 22:54:00,
2013-09-25 17:55:00,62.5,54.8,29.92,NE,43,5.0,7.0,76,0.00,,CLR,0.00,VWS V14.01,2013-09-25 22:55:00,
2013-09-25 17:59:00,62.4,55.1,29.92,NNE,16,5.0,9.0,77,0.00,,FEW025,0.00,VWS V14.01,2013-09-25 22:59:00,
2013-09-25 18:00:00,62.4,55.1,29.92,NNE,16,5.0,9.0,77,0.00,,CLR,0.00,VWS V14.01,2013-09-25 23:00:00,
2013-09-25 18:05:00,62.3,55.4,29.92,NE,40,2.0,8.0,78,0.00,,CLR,0.00,VWS V14.01,2013-09-25 23:05:00,
2013-09-25 18:10:00,62.1,55.2,29.91,NE,55,4.0,9.0,78,0.00,,CLR,0.00,VWS V14.01,2013-09-25 23:10:00,
2013-09-25 18:15:00,62.1,55.2,29.91,ENE,58,3.0,10.0,78,0.00,,CLR,0.00,VWS V14.01,2013-09-25 23:15:00,
2013-09-25 18:20:00,61.9,54.6,29.91,ENE,67,7.0,9.0,77,0.00,,CLR,0.00,VWS V14.01,2013-09-25 23:20:00,
2013-09-25 18:25:00,61.8,54.9,29.91,NE,44,3.0,8.0,78,0.00,,CLR,0.00,VWS V14.01,2013-09-25 23:25:00,
2013-09-25 18:30:00,61.7,55.1,29.91,ENE,62,0.0,8.0,79,0.00,,CLR,0.00,VWS V14.01,2013-09-25 23:30:00,
2013-09-25 18:35:00,61.6,54.7,29.91,NE,56,6.0,10.0,78,0.00,,CLR,0.00,VWS V14.01,2013-09-25 23:35:00,
2013-09-25 18:40:00,61.5,54.9,29.91,NE,35,5.0,9.0,79,0.00,,CLR,0.00,VWS V14.01,2013-09-25 23:40:00,
2013-09-25 18:45:00,61.4,54.8,29.91,NE,44,0.0,10.0,79,0.00,,CLR,0.00,VWS V14.01,2013-09-25 23:45:00,
2013-09-25 18:50:00,61.4,55.2,29.91,ENE,57,4.0,9.0,80,0.00,,CLR,0.00,VWS V14.01,2013-09-25 23:50:00,
2013-09-25 18:55:00,61.3,55.1,29.91,NE,42,4.0,8.0,80,0.00,,CLR,0.00,VWS V14.01,2013-09-25 23:55:00,
2013-09-25 19:00:00,61.3,55.1,29.91,NE,52,6.0,10.0,80,0.00,,CLR,0.00,VWS V14.01,2013-09-26 00:00:00,
2013-09-25 19:05:00,61.3,55.1,29.91,NNE,32,4.0,8.0,80,0.00,,CLR,0.00,VWS V14.01,2013-09-26 00:05:00,
2013-09-25 19:10:00,61.3,54.7,29.91,NNE,26,4.0,8.0,79,0.00,,CLR,0.00,VWS V14.01,2013-09-26 00:10:00,
2013-09-25 19:15:00,61.3,54.7,29.91,NE,56,4.0,10.0,79,0.00,,CLR,0.00,VWS V14.01,2013-09-26 00:15:00,
2013-09-25 19:20:00,61.3,55.1,29.91,NE,35,0.0,9.0,80,0.00,,CLR,0.00,VWS V14.01,2013-09-26 00:20:00,
2013-09-25 19:25:00,61.3,55.1,29.91,NE,38,0.0,7.0,80,0.00,,CLR,0.00,VWS V14.01,2013-09-26 00:25:00,
2013-09-25 19:30:00,61.3,54.7,29.91,NE,53,0.0,8.0,79,0.00,,CLR,0.00,VWS V14.01,2013-09-26 00:30:00,
2013-09-25 19:31:00,61.3,54.7,29.91,NNE,22,0.0,8.0,79,0.00,,CLR,0.00,VWS V14.01,2013-09-26 00:31:00,
2013-09-25 19:35:00,61.3,55.1,29.91,NE,52,0.0,7.0,80,0.00,,CLR,0.00,VWS V14.01,2013-09-26 00:35:00,
2013-09-25 19:36:00,61.3,55.4,29.91,NE,36,0.0,7.0,81,0.00,,CLR,0.00,VWS V14.01,2013-09-26 00:36:00,
2013-09-25 19:40:00,61.3,55.1,29.92,NE,47,1.0,5.0,80,0.00,,CLR,0.00,VWS V14.01,2013-09-26 00:40:00,
2013-09-25 19:41:00,61.3,55.1,29.92,ENE,62,0.0,6.0,80,0.00,,CLR,0.00,VWS V14.01,2013-09-26 00:41:00,
2013-09-25 19:45:00,61.3,55.1,29.92,NE,45,0.0,7.0,80,0.00,,CLR,0.00,VWS V14.01,2013-09-26 00:45:00,
2013-09-25 19:46:00,61.3,54.7,29.92,NNE,19,0.0,5.0,79,0.00,,CLR,0.00,VWS V14.01,2013-09-26 00:46:00,
2013-09-25 19:50:00,61.3,55.1,29.92,NNE,29,7.0,7.0,80,0.00,,CLR,0.00,VWS V14.01,2013-09-26 00:50:00,
2013-09-25 19:51:00,61.3,55.1,29.92,NE,36,3.0,7.0,80,0.00,,CLR,0.00,VWS V14.01,2013-09-26 00:51:00,
2013-09-25 19:55:00,61.3,55.1,29.92,NE,44,0.0,5.0,80,0.00,,CLR,0.00,VWS V14.01,2013-09-26 00:55:00,
2013-09-25 19:56:00,61.3,55.1,29.92,ENE,67,1.0,5.0,80,0.00,,CLR,0.00,VWS V14.01,2013-09-26 00:56:00,
2013-09-25 20:00:00,61.3,55.1,29.92,NE,40,0.0,5.0,80,0.00,,CLR,0.00,VWS V14.01,2013-09-26 01:00:00,
2013-09-25 20:01:00,61.3,55.1,29.92,NE,40,0.0,5.0,80,0.00,,CLR,0.00,VWS V14.01,2013-09-26 01:01:00,
2013-09-25 20:05:00,61.3,55.4,29.92,NE,36,0.0,5.0,81,0.00,,CLR,0.00,VWS V14.01,2013-09-26 01:05:00,
2013-09-25 20:06:00,61.2,55.3,29.92,NE,36,0.0,5.0,81,0.00,,CLR,0.00,VWS V14.01,2013-09-26 01:06:00,
2013-09-25 20:10:00,61.2,55.3,29.92,NE,38,4.0,5.0,81,0.00,,CLR,0.00,VWS V14.01,2013-09-26 01:10:00,
2013-09-25 20:11:00,61.2,55.3,29.92,NNE,31,4.0,7.0,81,0.00,,CLR,0.00,VWS V14.01,2013-09-26 01:11:00,
2013-09-25 20:15:00,61.2,55.3,29.92,NE,45,0.0,7.0,81,0.00,,CLR,0.00,VWS V14.01,2013-09-26 01:15:00,
2013-09-25 20:16:00,61.3,55.4,29.92,NE,46,0.0,5.0,81,0.00,,CLR,0.00,VWS V14.01,2013-09-26 01:16:00,
2013-09-25 20:20:00,61.2,55.3,29.92,NNE,30,3.0,6.0,81,0.00,,CLR,0.00,VWS V14.01,2013-09-26 01:20:00,
2013-09-25 20:21:00,61.2,55.3,29.92,NE,38,5.0,7.0,81,0.00,,CLR,0.00,VWS V14.01,2013-09-26 01:21:00,
2013-09-25 20:25:00,61.3,55.4,29.92,NE,37,0.0,9.0,81,0.00,,CLR,0.00,VWS V14.01,2013-09-26 01:25:00,
2013-09-25 20:26:00,61.3,55.4,29.92,NNE,30,0.0,8.0,81,0.00,,CLR,0.00,VWS V14.01,2013-09-26 01:26:00,
2013-09-25 20:30:00,61.3,55.4,29.92,NE,43,0.0,5.0,81,0.00,,CLR,0.00,VWS V14.01,2013-09-26 01:30:00,
2013-09-25 20:31:00,61.3,55.1,29.92,NE,42,0.0,5.0,80,0.00,,CLR,0.00,VWS V14.01,2013-09-26 01:31:00,
2013-09-25 20:35:00,61.3,55.4,29.92,NNE,25,2.0,7.0,81,0.00,,CLR,0.00,VWS V14.01,2013-09-26 01:35:00,
2013-09-25 20:36:00,61.3,55.4,29.92,NE,50,0.0,7.0,81,0.00,,CLR,0.00,VWS V14.01,2013-09-26 01:36:00,
2013-09-25 20:40:00,61.3,55.4,29.92,NE,50,0.0,6.0,81,0.00,,CLR,0.00,VWS V14.01,2013-09-26 01:40:00,
2013-09-25 20:42:00,61.4,55.5,29.92,NNE,16,0.0,6.0,81,0.00,,CLR,0.00,VWS V14.01,2013-09-26 01:42:00,
2013-09-25 20:45:00,61.3,55.4,29.92,NNE,23,1.0,6.0,81,0.00,,CLR,0.00,VWS V14.01,2013-09-26 01:45:00,
2013-09-25 20:47:00,61.3,55.4,29.92,NE,44,0.0,3.0,81,0.00,,CLR,0.00,VWS V14.01,2013-09-26 01:47:00,
2013-09-25 20:50:00,61.1,54.5,29.92,East,96,0.0,1.0,79,0.00,,CLR,0.00,VWS V14.01,2013-09-26 01:50:00,
2013-09-25 20:52:00,60.4,53.5,29.92,South,182,0.0,0.0,78,0.00,,CLR,0.00,VWS V14.01,2013-09-26 01:52:00,
2013-09-25 20:55:00,59.5,53.0,29.92,North,360,0.0,0.0,79,0.00,,CLR,0.00,VWS V14.01,2013-09-26 01:55:00,
2013-09-25 20:57:00,58.5,52.4,29.92,WSW,246,0.0,0.0,80,0.00,,CLR,0.00,VWS V14.01,2013-09-26 01:57:00,
2013-09-25 21:00:00,57.8,52.3,29.92,WSW,246,0.0,0.0,82,0.00,,CLR,0.00,VWS V14.01,2013-09-26 02:00:00,
2013-09-25 21:02:00,57.3,52.5,29.92,WSW,246,0.0,0.0,84,0.00,,CLR,0.00,VWS V14.01,2013-09-26 02:02:00,
2013-09-25 21:05:00,56.9,52.4,29.92,WSW,246,0.0,0.0,85,0.00,,CLR,0.00,VWS V14.01,2013-09-26 02:05:00,
2013-09-25 21:07:00,56.5,52.4,29.92,WSW,246,0.0,0.0,86,0.00,,CLR,0.00,VWS V14.01,2013-09-26 02:07:00,
2013-09-25 21:10:00,56.3,52.2,29.92,WSW,246,0.0,0.0,86,0.00,,CLR,0.00,VWS V14.01,2013-09-26 02:10:00,
2013-09-25 21:12:00,56.0,52.2,29.92,WSW,246,0.0,0.0,87,0.00,,CLR,0.00,VWS V14.01,2013-09-26 02:12:00,
2013-09-25 21:15:00,55.9,52.1,29.92,WSW,246,0.0,0.0,87,0.00,,CLR,0.00,VWS V14.01,2013-09-26 02:15:00,
2013-09-25 21:17:00,55.6,52.1,29.92,WSW,246,0.0,0.0,88,0.00,,CLR,0.00,VWS V14.01,2013-09-26 02:17:00,
2013-09-25 21:20:00,55.5,52.0,29.92,WSW,246,0.0,0.0,88,0.00,,CLR,0.00,VWS V14.01,2013-09-26 02:20:00,
2013-09-25 21:23:00,55.4,51.9,29.92,WSW,246,0.0,0.0,88,0.00,,CLR,0.00,VWS V14.01,2013-09-26 02:23:00,
2013-09-25 21:25:00,55.2,52.0,29.92,WSW,246,0.0,0.0,89,0.00,,CLR,0.00,VWS V14.01,2013-09-26 02:25:00,
2013-09-25 21:29:00,55.0,51.8,29.92,WSW,246,0.0,0.0,89,0.00,,CLR,0.00,VWS V14.01,2013-09-26 02:29:00,
2013-09-25 21:30:00,55.0,51.8,29.92,WSW,246,0.0,0.0,89,0.00,,CLR,0.00,VWS V14.01,2013-09-26 02:30:00,
2013-09-25 21:34:00,55.0,52.1,29.92,WSW,246,0.0,0.0,90,0.00,,CLR,0.00,VWS V14.01,2013-09-26 02:34:00,
2013-09-25 21:35:00,55.0,52.1,29.92,WSW,246,0.0,0.0,90,0.00,,CLR,0.00,VWS V14.01,2013-09-26 02:35:00,
2013-09-25 21:39:00,55.2,52.3,29.92,WSW,246,0.0,0.0,90,0.00,,CLR,0.00,VWS V14.01,2013-09-26 02:39:00,
2013-09-25 21:40:00,55.2,52.3,29.92,WSW,246,0.0,0.0,90,0.00,,CLR,0.00,VWS V14.01,2013-09-26 02:40:00,
2013-09-25 21:44:00,55.1,52.2,29.92,WSW,246,0.0,0.0,90,0.00,,CLR,0.00,VWS V14.01,2013-09-26 02:44:00,
2013-09-25 21:45:00,55.1,52.2,29.92,WSW,246,0.0,0.0,90,0.00,,CLR,0.00,VWS V14.01,2013-09-26 02:45:00,
2013-09-25 21:49:00,54.9,52.0,29.92,WSW,246,0.0,0.0,90,0.00,,CLR,0.00,VWS V14.01,2013-09-26 02:49:00,
2013-09-25 21:50:00,54.9,52.0,29.92,WSW,246,0.0,0.0,90,0.00,,CLR,0.00,VWS V14.01,2013-09-26 02:50:00,
2013-09-25 21:54:00,54.8,51.9,29.92,WSW,249,0.0,1.0,90,0.00,,CLR,0.00,VWS V14.01,2013-09-26 02:54:00,
2013-09-25 21:55:00,54.8,51.9,29.92,WSW,249,0.0,1.0,90,0.00,,CLR,0.00,VWS V14.01,2013-09-26 02:55:00,
2013-09-25 21:59:00,54.6,51.7,29.92,WSW,249,0.0,0.0,90,0.00,,CLR,0.00,VWS V14.01,2013-09-26 02:59:00,
2013-09-25 22:00:00,54.6,51.7,29.92,WSW,249,0.0,0.0,90,0.00,,CLR,0.00,VWS V14.01,2013-09-26 03:00:00,
2013-09-25 22:04:00,54.4,51.5,29.92,WSW,249,0.0,0.0,90,0.00,,CLR,0.00,VWS V14.01,2013-09-26 03:04:00,
2013-09-25 22:05:00,54.4,51.8,29.92,WSW,249,0.0,0.0,91,0.00,,CLR,0.00,VWS V14.01,2013-09-26 03:05:00,
2013-09-25 22:09:00,54.2,51.3,29.92,WSW,249,0.0,0.0,90,0.00,,CLR,0.00,VWS V14.01,2013-09-26 03:09:00,
2013-09-25 22:10:00,54.2,51.3,29.92,WSW,249,0.0,0.0,90,0.00,,CLR,0.00,VWS V14.01,2013-09-26 03:10:00,
2013-09-25 22:14:00,54.1,51.5,29.92,WSW,253,0.0,3.0,91,0.00,,CLR,0.00,VWS V14.01,2013-09-26 03:14:00,
2013-09-25 22:15:00,54.1,51.5,29.92,WSW,254,0.0,3.0,91,0.00,,CLR,0.00,VWS V14.01,2013-09-26 03:15:00,
2013-09-25 22:19:00,53.9,51.3,29.93,WSW,253,0.0,0.0,91,0.00,,CLR,0.00,VWS V14.01,2013-09-26 03:19:00,
2013-09-25 22:20:00,53.9,51.3,29.93,WSW,253,0.0,0.0,91,0.00,,CLR,0.00,VWS V14.01,2013-09-26 03:20:00,
2013-09-25 22:24:00,53.8,51.2,29.93,WSW,253,0.0,0.0,91,0.00,,CLR,0.00,VWS V14.01,2013-09-26 03:24:00,
2013-09-25 22:25:00,53.8,51.2,29.93,WSW,253,0.0,0.0,91,0.00,,CLR,0.00,VWS V14.01,2013-09-26 03:25:00,
2013-09-25 22:29:00,53.7,51.1,29.93,WSW,254,0.0,0.0,91,0.00,,CLR,0.00,VWS V14.01,2013-09-26 03:29:00,
2013-09-25 22:30:00,53.7,51.1,29.93,WSW,253,0.0,0.0,91,0.00,,CLR,0.00,VWS V14.01,2013-09-26 03:30:00,
2013-09-25 22:34:00,53.5,50.9,29.93,WSW,254,0.0,1.0,91,0.00,,CLR,0.00,VWS V14.01,2013-09-26 03:34:00,
2013-09-25 22:35:00,53.5,50.9,29.93,WSW,254,0.0,1.0,91,0.00,,CLR,0.00,VWS V14.01,2013-09-26 03:35:00,
2013-09-25 22:39:00,53.3,50.7,29.93,WSW,254,0.0,0.0,91,0.00,,CLR,0.00,VWS V14.01,2013-09-26 03:39:00,
2013-09-25 22:40:00,53.3,50.7,29.93,WSW,254,0.0,0.0,91,0.00,,CLR,0.00,VWS V14.01,2013-09-26 03:40:00,
2013-09-25 22:44:00,53.1,50.5,29.93,WSW,254,0.0,0.0,91,0.00,,CLR,0.00,VWS V14.01,2013-09-26 03:44:00,
2013-09-25 22:45:00,53.1,50.5,29.93,WSW,254,0.0,0.0,91,0.00,,CLR,0.00,VWS V14.01,2013-09-26 03:45:00,
2013-09-25 22:49:00,53.1,50.8,29.93,WSW,255,0.0,0.0,92,0.00,,CLR,0.00,VWS V14.01,2013-09-26 03:49:00,
2013-09-25 22:50:00,53.1,50.8,29.93,WSW,255,0.0,0.0,92,0.00,,CLR,0.00,VWS V14.01,2013-09-26 03:50:00,
2013-09-25 22:54:00,53.2,50.9,29.92,West,262,0.0,0.0,92,0.00,,CLR,0.00,VWS V14.01,2013-09-26 03:54:00,
2013-09-25 22:55:00,53.2,50.9,29.92,West,262,0.0,0.0,92,0.00,,CLR,0.00,VWS V14.01,2013-09-26 03:55:00,
2013-09-25 23:00:00,53.3,51.3,29.92,West,261,0.0,0.0,93,0.00,,CLR,0.00,VWS V14.01,2013-09-26 04:00:00,
2013-09-25 23:01:00,53.3,51.3,29.92,West,262,0.0,0.0,93,0.00,,CLR,0.00,VWS V14.01,2013-09-26 04:01:00,
2013-09-25 23:02:00,53.4,51.4,29.92,West,262,0.0,0.0,93,0.00,,CLR,0.00,VWS V14.01,2013-09-26 04:02:00,
2013-09-25 23:03:00,53.5,51.8,29.92,West,262,0.0,0.0,94,0.00,,CLR,0.00,VWS V14.01,2013-09-26 04:03:00,
2013-09-25 23:04:00,53.6,51.9,29.92,West,261,0.0,0.0,94,0.00,,CLR,0.00,VWS V14.01,2013-09-26 04:04:00,
2013-09-25 23:05:00,53.7,52.0,29.92,West,262,0.0,0.0,94,0.00,,CLR,0.00,VWS V14.01,2013-09-26 04:05:00,
2013-09-25 23:09:00,54.4,52.7,29.92,West,261,0.0,0.0,94,0.00,,CLR,0.00,VWS V14.01,2013-09-26 04:09:00,
2013-09-25 23:10:00,54.4,52.7,29.92,West,261,0.0,0.0,94,0.00,,CLR,0.00,VWS V14.01,2013-09-26 04:10:00,
2013-09-25 23:14:00,55.2,53.5,29.92,ENE,62,0.0,3.0,94,0.00,,CLR,0.00,VWS V14.01,2013-09-26 04:14:00,
2013-09-25 23:15:00,55.2,53.5,29.92,ENE,62,0.0,3.0,94,0.00,,CLR,0.00,VWS V14.01,2013-09-26 04:15:00,
2013-09-25 23:19:00,55.8,53.8,29.92,ENE,61,0.0,2.0,93,0.00,,CLR,0.00,VWS V14.01,2013-09-26 04:19:00,
2013-09-25 23:20:00,55.8,53.8,29.92,ENE,61,0.0,2.0,93,0.00,,CLR,0.00,VWS V14.01,2013-09-26 04:20:00,
2013-09-25 23:24:00,55.8,53.2,29.92,ENE,61,0.0,0.0,91,0.00,,CLR,0.00,VWS V14.01,2013-09-26 04:24:00,
2013-09-25 23:25:00,55.8,53.2,29.92,ENE,61,0.0,0.0,91,0.00,,CLR,0.00,VWS V14.01,2013-09-26 04:25:00,
2013-09-25 23:29:00,55.3,52.4,29.92,ENE,61,0.0,0.0,90,0.00,,CLR,0.00,VWS V14.01,2013-09-26 04:29:00,
2013-09-25 23:30:00,55.3,52.4,29.92,ENE,61,0.0,0.0,90,0.00,,CLR,0.00,VWS V14.01,2013-09-26 04:30:00,
2013-09-25 23:34:00,54.7,51.5,29.92,ENE,61,0.0,0.0,89,0.00,,CLR,0.00,VWS V14.01,2013-09-26 04:34:00,
2013-09-25 23:35:00,54.7,51.5,29.92,ENE,61,0.0,0.0,89,0.00,,CLR,0.00,VWS V14.01,2013-09-26 04:35:00,
2013-09-25 23:39:00,54.6,51.7,29.93,NW,321,0.0,3.0,90,0.00,,CLR,0.00,VWS V14.01,2013-09-26 04:39:00,
2013-09-25 23:40:00,54.6,51.7,29.93,NW,321,0.0,3.0,90,0.00,,CLR,0.00,VWS V14.01,2013-09-26 04:40:00,
2013-09-25 23:44:00,54.2,51.3,29.93,NW,321,0.0,0.0,90,0.00,,CLR,0.00,VWS V14.01,2013-09-26 04:44:00,
2013-09-25 23:45:00,54.2,51.3,29.93,NW,321,0.0,0.0,90,0.00,,CLR,0.00,VWS V14.01,2013-09-26 04:45:00,
2013-09-25 23:49:00,53.9,51.0,29.93,NW,321,0.0,0.0,90,0.00,,CLR,0.00,VWS V14.01,2013-09-26 04:49:00,
2013-09-25 23:50:00,53.9,51.0,29.93,NW,321,0.0,0.0,90,0.00,,CLR,0.00,VWS V14.01,2013-09-26 04:50:00,
2013-09-25 23:54:00,53.6,50.7,29.93,NW,321,0.0,0.0,90,0.00,,CLR,0.00,VWS V14.01,2013-09-26 04:54:00,
2013-09-25 23:55:00,53.6,50.7,29.93,NW,321,0.0,0.0,90,0.00,,CLR,0.00,VWS V14.01,2013-09-26 04:55:00,